"Pseudo-MPEC" for P11JcoX

Created 2023 Oct 1 20:22:10 UT using Find_Orb

Click here for an explanation of pseudo-MPECs

 
 Astrometry: 
     P11JcoX* C2023 09 11$@JaUO7naAstrometryZF=bKRredacted;(p7^*dMBbZnZ,a[`e!F51
     P11JcoX  C2023 09 111L0:Y!x%;PJCF[+/MclickhivO]here]j8!NIforoF\qyai:8:78F51
     P11JcoX  C2023 09 110Mw66%XexplanationY!Zc8rS:0.B3#CotBWd\IXMahT9XjjJs$3F51

Station data:
(F51) Pan-STARRS 1, Haleakala  (N20.707234 W156.255910)  US/Hawaii.
   Observers J. Bulger, T. Lowe, A. Schultz, M. Willman. Measurers K.
   Chambers, S. Chastel, T. de Boer, L. Denneau, J. Fairlamb, H. Flewelling,
   M. Huber, C.-C. Lin, E. Magnier, Y. Ramanjooloo, R. Wainscoat, R. Weryk.
   1.8-m Ritchey-Chrétien + CCD.

Orbital elements:  P11JcoX
   Perihelion 2023 Oct 17.61746 +/- 54.3 TT = 14:49:08 (JD 2460235.11746)
Epoch 2023 Sep 11.0 TT = JDT 2460198.5   Earth MOID: 0.6125   Ju: 0.6859
M 353.98002762 +/- 16               (J2000 ecliptic)             AutoNEOCP
n   0.16440170 +/- 0.202            Peri.  318.56523 +/- 90
a   3.30013600 +/- 2.71             Node    48.52308 +/- 44
e   0.5180734 +/- 0.246             Incl.   11.91935 +/- 4.5
P   6.00                   H 21.00  G  0.15   U 11.7  SR
q 1.59042323 +/- 0.571    Q 5.00984877 +/- 189
From 3 observations 2023 Sept. 11 (43.5 min); mean residual 0".03
Residuals in arcseconds: 
230911 F51  .02-  .00     230911 F51  .05+  .01+    230911 F51  .03-  .01-    

Ephemerides (geocentric):
Date (UTC) HH   RA             Dec           delta  r     elong  mag " sig PA
---- --------  ------------   ------------  ------ ------ -----  --- --------
2023 10 01 20  23 31 34.626   -27 48 26.95  .66669 1.5979 146.0 22.2  39d  67
2023 10 01 21  23 31 33.721   -27 47 47.58  .66676 1.5979 146.0 22.2  39d  67
2023 10 01 22  23 31 32.818   -27 47 08.16  .66682 1.5979 146.0 22.2  39d  67
2023 10 01 23  23 31 31.918   -27 46 28.69  .66689 1.5978 145.9 22.2  39d  67
2023 10 02 00  23 31 31.021   -27 45 49.17  .66695 1.5978 145.9 22.2  39d  67
2023 10 02 01  23 31 30.126   -27 45 09.59  .66702 1.5978 145.9 22.2  39d  67
2023 10 02 02  23 31 29.233   -27 44 29.96  .66708 1.5977 145.9 22.2  39d  67
2023 10 02 03  23 31 28.343   -27 43 50.28  .66715 1.5977 145.8 22.2  39d  67
2023 10 02 04  23 31 27.456   -27 43 10.55  .66721 1.5976 145.8 22.2  39d  67
2023 10 02 05  23 31 26.572   -27 42 30.77  .66728 1.5976 145.8 22.2  39d  67
2023 10 02 06  23 31 25.690   -27 41 50.94  .66734 1.5976 145.8 22.2  39d  67
2023 10 02 07  23 31 24.810   -27 41 11.05  .66741 1.5975 145.8 22.2  39d  67
2023 10 02 08  23 31 23.934   -27 40 31.11  .66747 1.5975 145.7 22.2  39d  68
2023 10 02 09  23 31 23.059   -27 39 51.12  .66754 1.5974 145.7 22.2  39d  68
2023 10 02 10  23 31 22.188   -27 39 11.08  .66761 1.5974 145.7 22.2  39d  68
2023 10 02 11  23 31 21.319   -27 38 30.99  .66768 1.5974 145.7 22.2  39d  68
2023 10 02 12  23 31 20.453   -27 37 50.85  .66774 1.5973 145.6 22.2  39d  69
2023 10 02 13  23 31 19.589   -27 37 10.65  .66781 1.5973 145.6 22.2  39d  70
2023 10 02 14  23 31 18.728   -27 36 30.41  .66788 1.5973 145.6 22.2  39d  70
2023 10 02 15  23 31 17.870   -27 35 50.11  .66795 1.5972 145.6 22.2  39d  71
2023 10 02 16  23 31 17.014   -27 35 09.76  .66802 1.5972 145.6 22.2  40d  72
2023 10 02 17  23 31 16.161   -27 34 29.36  .66808 1.5971 145.5 22.2  40d  72
2023 10 02 18  23 31 15.311   -27 33 48.91  .66815 1.5971 145.5 22.2  40d  73
2023 10 02 19  23 31 14.464   -27 33 08.40  .66822 1.5971 145.5 22.2  40d  73
2023 10 02 20  23 31 13.619   -27 32 27.85  .66829 1.5970 145.5 22.2  40d  74
2023 10 02 21  23 31 12.776   -27 31 47.25  .66836 1.5970 145.5 22.2  40d  74
2023 10 02 22  23 31 11.937   -27 31 06.59  .66843 1.5970 145.4 22.2  40d  74
2023 10 02 23  23 31 11.100   -27 30 25.88  .66850 1.5969 145.4 22.2  40d  74
2023 10 03 00  23 31 10.266   -27 29 45.13  .66857 1.5969 145.4 22.2  40d  74
2023 10 03 01  23 31 09.434   -27 29 04.32  .66864 1.5968 145.4 22.2  41d  74
2023 10 03 02  23 31 08.606   -27 28 23.46  .66872 1.5968 145.3 22.2  41d  74
2023 10 03 03  23 31 07.780   -27 27 42.55  .66879 1.5968 145.3 22.2  41d  74
2023 10 03 04  23 31 06.956   -27 27 01.59  .66886 1.5967 145.3 22.2  41d  75
2023 10 03 05  23 31 06.136   -27 26 20.58  .66893 1.5967 145.3 22.2  41d  75
2023 10 03 06  23 31 05.318   -27 25 39.52  .66900 1.5967 145.3 22.2  41d  75
2023 10 03 07  23 31 04.503   -27 24 58.40  .66907 1.5966 145.2 22.2  41d  75
2023 10 03 08  23 31 03.690   -27 24 17.24  .66915 1.5966 145.2 22.2  41d  75
2023 10 03 09  23 31 02.881   -27 23 36.03  .66922 1.5966 145.2 22.2  41d  75
2023 10 03 10  23 31 02.074   -27 22 54.76  .66929 1.5965 145.2 22.2  41d  75
2023 10 03 11  23 31 01.270   -27 22 13.45  .66937 1.5965 145.1 22.2  41d  75
2023 10 03 12  23 31 00.469   -27 21 32.09  .66944 1.5964 145.1 22.2  41d  75
2023 10 03 13  23 30 59.670   -27 20 50.67  .66951 1.5964 145.1 22.2  41d  75
2023 10 03 14  23 30 58.874   -27 20 09.21  .66959 1.5964 145.1 22.2  41d  75
2023 10 03 15  23 30 58.081   -27 19 27.69  .66966 1.5963 145.1 22.2  41d  75
2023 10 03 16  23 30 57.291   -27 18 46.13  .66974 1.5963 145.0 22.2  41d  75
2023 10 03 17  23 30 56.504   -27 18 04.51  .66981 1.5963 145.0 22.2  41d  75
2023 10 03 18  23 30 55.719   -27 17 22.85  .66989 1.5962 145.0 22.2  41d  75
2023 10 03 19  23 30 54.937   -27 16 41.13  .66996 1.5962 145.0 22.2  41d  75